Calicut International Airport

Jump to: basic info | weather | frequencies | runways | comments

Related pages: nearby airports | nearby navaids | notams | map

Basic information (top)

Codes: CCJ VOCL
Location: lon 11.136800, lat 75.955299, elev 342 ft / 104 m msl
Status: large_airport
Scheduled airline service: yes
Links: Wikipedia Mobile

Weather (top)

Current conditions (rec'd 2014/11/28 02:30Z):

VOCL 280230Z 07004KT 2000 BR FEW012 SCT090 24/22 Q1010 BECMG 3000

Airport forecast (rec'd 2014/11/27 09:00Z):

TAF VOCL 270600Z 2709/2718 27005KT 6000 HZ SCT015 BKN090 
      TEMPO 2710/2715 3000 TSRA/RA SCT015 FEW025CB BKN080 
      BECMG 2716/2717 09005KT 4000 HZ

Frequencies (top)

Verify before use: may be inaccurate or out of date.

ATIS: 127 MHz (ATIS)
TWR: 122.95 MHz (TWR)

Runways (top)

10/28: 9,383 x 150 ft (2,860 x 46 m) — paved — lighted

Latest comments (top)

Moideenkutty oorakam ( CCJ ): Calicut int airport ( Terminal,1 - ... [read]

Info: Calicut International Airport ... [read]

More... (top)

See also NOTAMs and nearby airports and navaids, or visit the Calicut International Airport page at the main OurAirports website..